Location: Newark
(58.8333°N, 23.5833°E)
Time: 19:33:23
(UTC+00:00)

A-11 Canister half - Pass Details

Date: 24 November 2019
Orbit: 1515 x 1685 km, 47.2° (Epoch: 10 December)

Event Time Altitude Azimuth Distance (km) Brightness Sun altitude
Rises 20:19:18 0° 276° (W) 4,937 12.1 -46.7°
Reaches altitude 10° 20:22:59 10° 266° (W) 3,953 11.4 -47.0°
Enters shadow 20:26:38 21° 249° (WSW) 3,159 10.6 -47.3°
Maximum altitude 20:31:11 29° 212° (SSW) 2,719 - -47.7°
Drops below altitude 10° 20:39:18 10° 158° (SSE) 3,910 - -48.3°
Sets 20:42:57 0° 148° (SSE) 4,876 - -48.5°
